Wind_Speed
17 17 16 16 16 16 15 16 16 16 15 14 13 12 11 11 10 9 9 8 8 7 7 7 6 6 6 6 6 6 6 6 6 6 7 7 7 8 8 8 8 8 8
19 18 18 18 17 17 17 17 18 17 16 16 15 14 13 12 12 11 10 10 9 9 8 8 8 7 7 8 7 7 7 7 7 7 8 8 8 8 9 9 9 9 9
20 19 19 19 19 19 19 18 19 19 18 18 17 16 15 15 14 13 12 11 10 10 10 10 9 9 9 9 9 9 9 9 9 9 9 9 9 10 10 10 10 10 10
21 21 21 21 21 20 20 20 20 20 20 19 19 18 17 16 16 15 14 13 12 12 11 11 10 10 10 10 10 10 10 10 10 10 10 10 11 11 11 11 11 12 12
22 22 22 22 22 22 22 22 21 21 21 21 21 20 19 18 17 17 16 15 14 13 13 12 11 11 11 11 11 11 11 10 11 11 11 11 11 12 12 12 13 13 13
24 23 24 23 23 23 23 23 23 23 23 23 22 22 21 20 19 18 17 16 15 15 14 13 13 13 13 13 12 12 12 12 12 12 13 13 13 13 13 14 14 14 15
25 25 25 25 25 25 25 25 25 25 25 25 24 24 23 22 21 20 18 18 17 16 15 15 15 15 14 14 14 13 13 13 13 14 14 14 15 15 15 16 16 16 16
26 26 27 27 27 27 26 26 27 27 27 27 26 26 25 24 23 21 20 19 18 17 17 16 16 16 16 15 15 15 14 14 15 15 16 16 16 17 17 17 17 17 17
28 28 28 28 29 29 28 28 27 28 28 28 27 27 27 25 24 23 22 21 20 19 19 18 17 17 17 17 16 16 16 16 16 17 17 17 18 18 18 18 18 18 18
29 29 29 30 30 30 30 30 29 29 29 29 29 28 28 27 26 25 24 23 22 21 20 19 19 19 18 18 18 18 18 18 18 19 19 19 19 20 20 20 20 20 20
29 30 30 31 31 32 32 32 31 31 30 30 30 30 30 29 28 27 26 25 24 23 22 21 21 21 20 20 19 20 20 20 20 21 21 21 21 22 21 21 21 21 21
30 31 31 33 33 33 34 34 34 33 32 32 32 32 31 30 30 29 28 27 26 25 24 24 24 23 22 22 22 22 22 22 23 23 23 23 23 24 23 23 23 23 23
31 32 33 34 34 35 36 36 36 35 34 34 34 33 33 32 31 31 29 29 28 27 26 26 25 25 25 24 24 24 24 25 25 25 25 25 25 25 25 25 25 25 26
32 33 34 34 35 35 37 38 38 38 37 35 35 34 33 32 32 32 30 29 28 28 28 27 27 27 27 26 26 26 26 27 26 27 27 27 27 27 27 28 28 28 28
32 33 34 34 35 36 36 38 39 38 38 37 37 37 34 33 34 33 32 31 30 29 28 28 29 29 28 28 29 29 29 28 28 29 29 29 29 30 30 30 30 30 30
31 32 33 34 35 36 37 38 39 39 38 37 38 38 37 35 35 35 34 33 32 31 30 30 30 30 31 31 31 31 31 31 31 31 30 31 32 31 31 32 32 32 32
31 32 33 35 35 36 37 37 38 39 39 38 39 39 39 37 36 35 36 35 34 33 32 31 31 31 32 33 33 33 33 33 34 33 33 33 33 33 32 33 33 33 32
30 31 33 34 35 36 37 38 38 40 40 38 39 39 39 37 36 35 36 36 35 33 33 32 33 33 34 34 34 34 35 35 35 36 35 34 34 34 34 34 34 34 34
30 31 32 34 35 36 37 37 38 38 39 39 39 38 39 38 36 36 36 35 35 35 34 34 34 35 35 35 35 36 36 37 37 37 37 36 36 35 35 35 35 35 35
29 30 30 32 34 35 36 36 37 38 39 39 38 38 39 41 38 36 36 36 36 36 36 36 36 36 36 37 37 38 38 38 39 39 38 37 37 37 37 37 37 37 37
28 28 28 29 32 33 34 35 35 35 37 38 38 37 38 40 40 38 38 37 36 36 37 37 37 38 38 39 39 39 39 40 39 40 39 39 39 39 39 39 39 39 39
25 26 26 27 29 31 33 34 34 35 35 36 37 37 37 38 39 38 38 37 37 37 38 39 39 39 39 39 40 40 40 41 41 41 41 40 41 40 41 41 41 41 41
24 24 25 27 28 30 31 33 33 34 35 35 37 37 38 37 38 39 39 38 38 38 39 40 40 40 40 40 41 42 42 42 43 42 41 41 41 41 42 42 43 43 43
22 23 23 26 27 28 30 33 34 34 34 35 37 38 38 38 38 40 40 39 38 39 39 40 40 40 41 42 43 43 43 43 43 43 42 43 43 43 43 44 43 44 45
23 23 24 26 27 29 30 33 33 33 34 35 37 38 38 37 37 39 40 39 39 39 39 40 41 42 42 42 42 42 42 43 43 44 43 43 44 44 44 45 45 46 46
23 24 24 25 27 28 29 31 32 33 34 34 35 37 37 36 38 38 40 40 40 40 40 40 41 42 42 42 42 42 42 43 44 44 45 44 45 45 45 45 46 46 46
Wind_Direction
244 241 238 238 237 234 231 230 229 228 227 228 228 225 225 225 225 228 229 225 224 226 228 233 240 247 253 261 267 271 273 275 277 283 288 290 291 291 291 291 293 295 298
246 244 240 239 237 236 234 232 231 230 229 228 229 227 228 229 230 233 234 232 233 235 236 239 243 251 256 261 266 272 273 274 276 282 287 289 289 288 288 288 289 291 295
246 245 243 240 238 238 237 235 233 232 232 231 231 230 231 232 234 235 237 237 238 240 241 243 247 253 256 260 265 270 271 272 274 279 283 286 286 286 285 286 286 289 292
245 246 245 242 239 238 238 237 236 235 234 235 234 232 234 235 237 238 239 240 241 243 245 246 250 253 258 262 265 268 271 272 273 277 280 283 284 283 283 284 285 287 289
245 246 246 243 241 240 239 239 238 237 236 237 238 236 236 238 238 239 240 241 242 243 245 246 249 253 258 261 265 267 270 271 274 276 278 279 281 282 283 283 285 286 287
245 246 247 245 244 242 241 241 241 238 239 240 241 240 240 239 240 240 240 240 241 242 244 247 250 254 257 260 263 267 268 270 273 276 278 279 279 281 283 284 285 285 286
245 245 247 246 246 244 242 241 243 241 241 241 242 243 241 240 239 240 240 239 240 242 245 248 251 255 257 259 262 265 267 269 272 274 277 279 279 280 281 283 284 285 284
246 246 247 247 247 246 245 243 243 242 242 241 242 244 243 240 240 239 240 241 242 244 246 249 252 255 258 260 261 262 265 269 272 275 277 278 279 279 280 281 283 284 283
248 248 248 247 247 247 245 242 241 242 242 242 241 242 241 240 240 241 240 242 245 246 247 249 251 253 257 260 261 262 265 269 273 275 278 279 279 278 279 280 281 281 281
248 249 249 248 248 247 244 243 241 241 242 241 241 241 241 241 241 241 242 243 245 246 247 248 250 253 256 260 262 264 266 269 272 275 277 279 278 278 280 280 279 279 280
249 250 250 250 249 246 244 242 241 241 241 240 240 241 241 241 242 242 243 243 244 245 247 249 251 254 257 260 263 266 268 270 273 275 277 278 278 278 279 279 279 280 279
251 251 251 250 249 246 244 243 242 242 241 241 240 241 241 240 242 243 244 245 245 246 248 251 253 255 257 259 261 264 268 271 274 276 277 278 278 277 278 279 279 279 278
253 253 253 252 251 248 246 244 243 241 240 241 241 240 241 241 241 243 244 245 246 247 249 252 254 256 257 259 262 265 268 271 274 275 276 277 277 278 278 278 278 278 278
254 254 254 253 252 249 247 245 242 240 240 241 240 238 240 242 241 243 244 246 247 248 250 253 255 257 258 259 262 264 267 270 273 274 275 276 276 278 278 277 277 277 277
255 255 255 253 251 249 248 244 241 239 238 240 241 238 239 240 241 242 245 247 249 250 251 254 255 257 258 259 261 264 267 269 271 273 274 275 275 276 276 276 277 277 277
257 255 253 251 250 248 248 245 241 239 237 238 239 239 239 241 242 243 244 246 249 252 254 255 256 257 259 260 262 264 266 269 271 273 274 275 275 276 277 277 277 277 278
257 256 253 250 249 247 247 245 241 238 237 239 239 240 240 241 243 244 244 245 249 252 254 255 257 258 261 261 262 264 265 268 270 272 275 276 277 276 274 276 276 276 277
257 256 254 251 248 248 247 244 241 238 238 239 239 240 239 240 242 243 245 245 248 251 253 256 258 260 262 262 263 265 266 268 270 272 275 276 277 276 275 276 276 276 277
259 257 255 251 248 247 245 243 240 238 239 237 237 237 238 239 242 243 244 246 247 250 252 256 259 261 262 263 264 266 267 269 271 272 273 275 276 276 277 276 275 276 277
260 259 257 251 248 245 243 241 239 239 239 237 237 236 238 238 242 244 245 247 248 251 254 257 259 262 264 265 266 267 268 269 271 272 272 273 273 274 275 275 275 276 277
260 258 255 251 247 244 241 239 239 239 238 237 236 236 239 239 242 246 248 249 249 252 255 258 260 263 265 267 268 269 269 269 270 271 271 271 272 273 273 275 275 276 277
260 259 255 252 248 244 240 238 238 238 239 239 238 239 241 242 243 246 249 250 250 254 257 260 262 264 265 267 269 270 270 269 270 271 271 271 271 272 274 275 276 277 278
261 262 256 252 248 241 237 238 238 240 241 240 240 241 243 244 244 246 249 250 252 255 258 261 264 265 266 267 269 270 271 271 270 270 271 271 271 272 273 275 276 277 278
260 260 256 251 247 244 243 240 239 242 242 242 242 243 245 247 247 248 251 253 255 256 259 261 264 265 266 268 269 270 270 271 270 270 270 271 270 271 272 273 275 276 277
261 259 254 252 249 248 247 243 241 244 244 243 244 245 246 249 250 251 252 256 256 258 260 262 264 266 267 268 268 269 269 270 270 271 270 270 269 270 271 272 273 275 275
262 258 256 254 250 248 246 245 243 244 245 245 245 246 248 251 252 253 254 257 258 260 262 263 265 266 267 268 269 269 270 271 271 271 271 270 269 270 271 272 272 274 275
Height
5852 5853 5854 5855 5855 5856 5857 5858 5859 5860 5861 5861 5862 5863 5864 5864 5865 5865 5866 5866 5866 5866 5867 5867 5867 5867 5868 5868 5868 5868 5868 5867 5867 5867 5867 5866 5866 5866 5865 5865 5864 5864 5864
5849 5850 5850 5851 5852 5853 5854 5855 5856 5857 5858 5859 5860 5861 5862 5862 5863 5863 5864 5864 5864 5864 5865 5865 5865 5866 5866 5866 5866 5866 5866 5866 5866 5865 5865 5865 5864 5864 5864 5863 5863 5863 5862
5845 5846 5847 5848 5849 5850 5851 5852 5853 5854 5855 5856 5857 5858 5859 5860 5860 5861 5861 5862 5862 5862 5863 5863 5863 5864 5864 5864 5864 5864 5864 5864 5864 5864 5863 5863 5863 5862 5862 5862 5861 5861 5860
5841 5842 5843 5844 5845 5846 5847 5848 5850 5851 5852 5853 5854 5855 5856 5857 5858 5858 5859 5859 5860 5860 5861 5861 5861 5861 5862 5862 5862 5862 5862 5862 5862 5861 5861 5861 5861 5860 5860 5860 5859 5859 5858
5836 5837 5839 5840 5841 5842 5843 5844 5846 5847 5848 5850 5851 5852 5853 5854 5855 5855 5856 5857 5857 5858 5858 5858 5859 5859 5859 5859 5860 5860 5860 5860 5859 5859 5859 5859 5858 5858 5858 5857 5857 5856 5856
5832 5833 5834 5835 5836 5837 5838 5840 5841 5843 5844 5846 5847 5848 5849 5851 5852 5852 5853 5854 5854 5855 5855 5856 5856 5856 5856 5857 5857 5857 5857 5857 5857 5857 5856 5856 5856 5855 5855 5854 5854 5853 5853
5826 5827 5828 5830 5831 5832 5833 5835 5836 5838 5840 5841 5843 5844 5845 5847 5848 5849 5849 5850 5851 5851 5852 5852 5853 5853 5854 5854 5854 5854 5854 5854 5854 5854 5853 5853 5853 5852 5852 5851 5851 5850 5850
5820 5822 5823 5824 5825 5826 5828 5829 5831 5833 5834 5836 5838 5839 5841 5842 5843 5844 5845 5846 5847 5848 5848 5849 5849 5850 5850 5851 5851 5851 5851 5851 5851 5850 5850 5850 5850 5849 5849 5848 5847 5847 5846
5814 5815 5817 5818 5819 5820 5821 5823 5825 5827 5829 5830 5832 5833 5835 5837 5838 5840 5841 5842 5843 5844 5845 5845 5846 5846 5847 5847 5847 5847 5848 5847 5847 5847 5847 5846 5846 5846 5845 5844 5844 5843 5842
5807 5809 5810 5811 5812 5813 5815 5817 5819 5821 5823 5825 5826 5827 5829 5831 5833 5835 5836 5838 5839 5840 5840 5841 5842 5843 5843 5843 5844 5844 5844 5844 5843 5843 5843 5843 5842 5842 5841 5840 5840 5839 5839
5800 5801 5802 5803 5805 5806 5807 5809 5812 5814 5816 5818 5820 5821 5823 5825 5827 5829 5831 5832 5834 5835 5836 5837 5837 5838 5838 5839 5839 5839 5839 5839 5839 5839 5838 5838 5838 5837 5837 5836 5835 5835 5834
5793 5793 5794 5796 5797 5798 5800 5802 5804 5807 5809 5811 5813 5815 5817 5819 5821 5823 5825 5827 5828 5829 5830 5831 5832 5833 5833 5834 5834 5834 5835 5834 5834 5834 5834 5833 5833 5832 5832 5831 5831 5830 5829
5784 5785 5786 5787 5788 5789 5791 5794 5796 5799 5802 5804 5806 5808 5811 5812 5815 5817 5819 5820 5821 5823 5824 5826 5826 5827 5828 5829 5829 5829 5829 5829 5829 5829 5828 5828 5827 5827 5827 5826 5825 5825 5824
5775 5776 5777 5778 5779 5780 5782 5784 5787 5790 5793 5796 5798 5801 5804 5806 5808 5811 5813 5814 5815 5817 5818 5819 5820 5821 5822 5823 5823 5823 5824 5824 5823 5823 5823 5822 5822 5821 5821 5820 5820 5819 5818
5766 5767 5767 5768 5769 5771 5772 5775 5778 5781 5784 5787 5790 5793 5796 5799 5801 5804 5806 5808 5809 5811 5812 5813 5814 5815 5816 5816 5817 5817 5817 5817 5817 5817 5817 5816 5816 5815 5814 5814 5813 5812 5811
5757 5757 5758 5759 5760 5762 5764 5766 5769 5772 5775 5778 5781 5785 5789 5792 5794 5796 5799 5801 5803 5804 5805 5807 5808 5809 5809 5810 5810 5810 5811 5811 5810 5810 5810 5809 5809 5808 5808 5807 5806 5805 5805
5748 5748 5749 5750 5751 5753 5755 5757 5760 5763 5767 5770 5773 5777 5781 5784 5786 5789 5791 5793 5795 5797 5798 5800 5801 5801 5802 5803 5803 5803 5804 5804 5803 5803 5803 5802 5802 5801 5800 5800 5799 5798 5797
5739 5740 5740 5741 5742 5744 5746 5748 5751 5754 5758 5761 5765 5768 5772 5775 5778 5781 5783 5785 5788 5789 5791 5792 5793 5794 5795 5795 5796 5796 5796 5796 5796 5795 5795 5795 5794 5793 5793 5792 5791 5791 5790
5731 5731 5731 5732 5734 5736 5737 5740 5742 5746 5750 5753 5756 5759 5763 5767 5769 5772 5775 5777 5779 5781 5783 5784 5785 5786 5787 5787 5787 5788 5788 5788 5788 5787 5787 5786 5786 5785 5785 5784 5783 5782 5781
5724 5723 5723 5724 5725 5727 5729 5731 5734 5738 5741 5744 5748 5751 5754 5758 5761 5764 5766 5769 5771 5773 5775 5776 5777 5777 5778 5779 5779 5779 5779 5779 5779 5778 5778 5778 5777 5777 5776 5776 5775 5774 5773
5717 5716 5715 5716 5717 5719 5722 5724 5727 5730 5734 5737 5740 5743 5746 5749 5753 5756 5758 5760 5762 5764 5766 5767 5768 5769 5769 5769 5769 5770 5770 5769 5769 5769 5769 5768 5768 5768 5767 5766 5766 5765 5764
5710 5709 5708 5709 5710 5712 5715 5717 5720 5723 5726 5729 5732 5735 5738 5741 5744 5747 5749 5751 5753 5755 5756 5757 5758 5759 5759 5759 5759 5759 5760 5760 5759 5759 5759 5758 5758 5758 5757 5757 5756 5755 5754
5702 5702 5702 5703 5704 5706 5708 5711 5713 5716 5719 5722 5724 5727 5730 5732 5735 5738 5740 5742 5744 5745 5747 5748 5749 5749 5749 5749 5749 5749 5749 5749 5749 5749 5748 5748 5748 5747 5747 5746 5745 5745 5744
5696 5696 5696 5697 5698 5699 5701 5703 5706 5708 5711 5714 5716 5719 5722 5725 5727 5729 5731 5733 5734 5736 5737 5738 5739 5739 5739 5739 5738 5738 5738 5738 5738 5738 5738 5737 5737 5736 5736 5735 5734 5733 5733
5689 5689 5690 5690 5691 5693 5694 5696 5699 5701 5704 5706 5708 5711 5714 5717 5718 5720 5722 5724 5725 5726 5727 5728 5729 5728 5728 5728 5728 5727 5727 5726 5726 5726 5727 5726 5725 5725 5724 5723 5722 5722 5721
5683 5683 5683 5684 5684 5686 5687 5689 5692 5694 5696 5698 5700 5703 5706 5708 5710 5711 5713 5715 5716 5717 5717 5718 5718 5718 5718 5717 5717 5716 5716 5715 5715 5714 5714 5714 5714 5713 5712 5711 5710 5709 5709